Probability
0 0 0 0 0 0 0 0 0 0 0 3 3 3 6 6 0 0 0 0 0 0 0 0 0 0 0 0 3 10 13 23 29 23 29 35 35 39
0 0 0 0 0 0 0 0 0 0 0 0 3 3 6 0 0 0 0 0 0 0 0 0 0 0 0 0 0 0 0 0 3 10 10 10 16 19
0 0 0 0 0 0 0 0 0 0 0 0 3 0 3 3 3 0 0 3 0 0 0 0 0 0 0 0 0 0 0 0 0 0 0 3 6 6
0 0 0 0 0 0 0 0 0 0 0 0 0 0 0 0 3 0 0 0 0 0 0 0 0 0 0 0 0 0 0 0 0 0 0 0 0 3
0 0 0 0 0 0 0 0 0 0 0 0 0 0 0 0 0 0 0 0 0 0 0 0 0 0 0 0 0 0 0 0 0 0 0 0 0 0
0 0 0 0 0 0 0 0 0 0 0 0 0 0 0 0 0 0 0 0 0 0 0 0 0 0 0 0 0 0 0 0 0 0 0 0 0 0
0 0 0 0 0 0 0 0 0 0 0 0 0 0 0 0 0 0 0 0 0 0 0 0 0 0 0 0 0 0 0 0 0 0 0 0 0 0
0 0 0 0 0 0 0 0 0 0 0 0 0 0 0 0 0 0 0 0 0 0 0 0 0 0 0 0 0 0 0 0 0 0 0 0 0 0
0 0 0 0 0 0 0 0 0 0 0 0 0 0 3 3 0 0 0 0 0 0 0 0 0 0 0 0 0 0 0 0 0 0 0 0 0 0
0 0 0 0 0 0 0 0 0 0 0 0 0 0 0 3 3 0 0 0 0 0 0 0 0 0 0 0 0 0 0 0 0 0 0 0 0 0
0 0 0 0 0 0 0 3 3 3 0 0 0 0 0 0 0 3 0 0 0 0 0 0 0 0 0 0 0 0 0 0 0 0 0 0 0 0
0 0 0 0 0 0 0 3 3 3 0 0 0 0 0 0 0 0 0 0 0 0 0 0 0 0 0 0 0 0 0 0 0 0 0 0 0 0
0 0 0 0 0 0 0 0 3 3 3 3 3 3 3 3 0 0 0 0 0 0 0 0 0 0 0 0 0 0 0 0 0 0 0 0 0 0
0 0 0 0 0 0 0 0 0 0 3 3 3 3 3 3 3 3 0 0 0 0 0 0 0 0 0 0 0 0 0 0 0 0 0 0 0 0
0 0 0 0 0 0 0 0 0 0 3 3 3 0 0 0 0 0 0 0 0 0 0 0 0 0 0 0 0 0 0 0 0 0 0 0 0 0
0 0 0 0 0 0 0 0 0 0 0 0 0 0 0 0 0 0 0 0 0 0 0 0 0 0 0 0 0 0 0 0 0 0 0 0 0 0
0 0 0 0 0 0 0 0 0 0 0 0 0 0 0 0 0 0 0 0 0 0 0 0 0 0 0 0 0 0 0 0 0 0 0 0 0 0
0 0 0 0 0 0 0 0 0 0 0 0 0 0 0 0 0 0 0 0 0 0 0 0 0 0 0 0 0 0 0 0 0 0 0 0 0 0
0 0 0 0 0 0 0 0 0 0 0 0 0 0 0 0 0 0 0 0 0 0 0 0 0 0 0 0 0 0 0 0 0 0 0 0 0 0
0 0 0 0 0 0 0 0 0 0 0 0 0 0 0 0 0 0 0 0 0 0 0 0 0 0 0 0 0 0 0 0 0 0 0 0 0 0
0 0 0 0 0 0 0 0 0 0 0 0 0 0 0 0 0 0 0 0 0 0 0 0 0 0 0 0 0 0 0 0 0 0 0 0 0 0
0 0 0 0 0 0 0 0 0 0 0 0 0 0 0 0 0 0 0 0 0 0 0 0 0 0 0 0 0 0 0 0 0 0 0 0 0 0
0 0 0 0 0 0 0 0 0 0 0 0 0 0 0 0 0 0 0 0 0 0 0 0 0 0 0 0 0 0 0 0 0 0 0 0 0 0
Height
5847 5845 5843 5842 5840 5839 5839 5838 5838 5837 5837 5836 5835 5835 5835 5835 5836 5836 5837 5838 5838 5839 5841 5842 5843 5844 5846 5847 5849 5851 5852 5854 5856 5858 5860 5862 5864 5866
5845 5843 5841 5839 5838 5836 5835 5834 5833 5833 5832 5832 5831 5831 5831 5831 5831 5831 5831 5832 5833 5834 5835 5836 5838 5839 5840 5841 5843 5845 5846 5848 5850 5852 5854 5856 5858 5860
5842 5840 5838 5836 5834 5833 5831 5830 5828 5828 5827 5827 5826 5826 5825 5825 5825 5825 5825 5825 5826 5827 5828 5830 5831 5832 5834 5835 5836 5838 5840 5842 5843 5845 5847 5849 5851 5854
5839 5837 5834 5832 5830 5828 5826 5824 5823 5822 5821 5821 5820 5819 5819 5818 5818 5818 5818 5818 5819 5820 5821 5822 5823 5825 5826 5828 5829 5831 5832 5834 5836 5838 5840 5842 5844 5846
5835 5832 5830 5827 5825 5822 5820 5818 5817 5815 5814 5813 5813 5812 5811 5811 5810 5810 5810 5810 5810 5811 5812 5814 5815 5816 5818 5820 5821 5823 5824 5826 5828 5830 5832 5834 5836 5838
5830 5827 5824 5821 5819 5816 5814 5811 5809 5808 5806 5805 5804 5803 5802 5801 5801 5800 5800 5800 5801 5802 5803 5804 5806 5807 5809 5811 5813 5814 5816 5817 5819 5821 5823 5825 5827 5829
5824 5821 5818 5814 5811 5809 5806 5804 5801 5799 5797 5795 5794 5793 5792 5791 5790 5790 5790 5790 5791 5791 5792 5794 5795 5797 5798 5800 5802 5804 5806 5808 5810 5811 5813 5816 5818 5820
5817 5814 5810 5807 5804 5800 5797 5794 5792 5789 5787 5784 5782 5780 5779 5778 5777 5777 5777 5778 5779 5780 5780 5782 5783 5785 5787 5789 5791 5793 5795 5797 5799 5801 5804 5806 5808 5811
5809 5805 5802 5798 5795 5791 5788 5785 5782 5778 5775 5772 5769 5767 5766 5765 5764 5764 5763 5764 5765 5766 5767 5769 5770 5772 5774 5776 5778 5780 5783 5785 5788 5790 5793 5795 5798 5800
5800 5796 5792 5789 5785 5781 5778 5775 5771 5767 5763 5759 5757 5754 5753 5751 5750 5749 5749 5750 5751 5751 5752 5754 5755 5757 5759 5762 5764 5767 5769 5772 5775 5778 5781 5784 5786 5789
5791 5787 5783 5779 5775 5771 5767 5763 5759 5755 5750 5747 5744 5741 5739 5737 5735 5734 5734 5734 5736 5737 5737 5738 5740 5741 5744 5747 5749 5752 5755 5758 5761 5764 5768 5771 5774 5777
5782 5778 5773 5769 5765 5760 5755 5751 5747 5742 5738 5734 5730 5728 5725 5723 5721 5720 5719 5719 5719 5721 5722 5722 5724 5725 5728 5732 5734 5737 5740 5744 5747 5750 5754 5757 5761 5764
5772 5768 5763 5758 5753 5748 5743 5738 5733 5729 5724 5720 5716 5713 5711 5708 5707 5705 5704 5703 5703 5704 5706 5706 5707 5709 5712 5716 5719 5722 5725 5729 5732 5736 5739 5743 5747 5751
5761 5756 5752 5747 5741 5736 5731 5725 5720 5715 5710 5705 5701 5698 5695 5693 5691 5690 5688 5687 5687 5687 5688 5689 5691 5693 5695 5698 5703 5706 5710 5713 5717 5721 5725 5729 5732 5737
5749 5745 5739 5734 5729 5723 5718 5712 5706 5700 5695 5691 5687 5683 5680 5677 5676 5674 5673 5671 5671 5671 5671 5672 5674 5676 5679 5682 5686 5690 5694 5698 5701 5705 5709 5713 5718 5722
5737 5732 5727 5721 5715 5710 5704 5697 5691 5685 5680 5675 5671 5667 5664 5662 5660 5659 5657 5656 5655 5656 5655 5656 5657 5659 5662 5666 5670 5674 5678 5682 5686 5689 5693 5697 5702 5707
5724 5719 5713 5708 5702 5695 5689 5682 5676 5670 5665 5660 5655 5652 5649 5646 5645 5643 5641 5640 5640 5640 5640 5640 5641 5643 5646 5649 5653 5657 5661 5665 5669 5673 5676 5681 5686 5691
5710 5705 5699 5693 5687 5681 5674 5668 5661 5655 5649 5644 5640 5636 5633 5630 5628 5627 5625 5624 5623 5623 5623 5624 5625 5626 5629 5633 5636 5640 5644 5647 5651 5655 5659 5663 5669 5674
5697 5691 5685 5678 5672 5665 5659 5652 5646 5639 5634 5628 5624 5620 5617 5614 5611 5610 5608 5607 5606 5606 5606 5606 5607 5608 5612 5616 5620 5622 5626 5630 5633 5637 5642 5646 5651 5657
5682 5676 5670 5663 5656 5650 5643 5636 5629 5623 5617 5612 5607 5604 5600 5597 5595 5593 5591 5590 5589 5588 5589 5589 5590 5591 5594 5598 5602 5606 5609 5612 5615 5620 5625 5629 5634 5639
5668 5661 5655 5648 5641 5634 5627 5620 5613 5607 5601 5595 5591 5587 5584 5581 5578 5576 5575 5573 5572 5571 5572 5573 5574 5575 5576 5579 5583 5588 5592 5594 5598 5602 5607 5612 5617 5622
5652 5646 5639 5632 5625 5618 5611 5604 5597 5591 5585 5580 5575 5571 5568 5565 5562 5560 5559 5557 5556 5556 5557 5558 5558 5559 5561 5562 5565 5570 5575 5578 5582 5586 5591 5596 5600 5607
5636 5629 5623 5616 5609 5602 5595 5589 5582 5576 5570 5565 5560 5556 5552 5549 5547 5545 5543 5542 5541 5541 5542 5543 5544 5544 5546 5547 5550 5554 5559 5562 5566 5571 5576 5580 5586 5592
Wind_Speed
13 13 12 12 12 12 12 12 13 13 13 14 15 15 16 17 18 19 20 21 22 23 24 24 24 25 26 26 27 27 27 28 29 29 28 28 28 28
14 15 14 14 13 13 14 14 15 15 16 16 17 17 18 19 20 20 22 23 24 25 26 26 27 26 26 27 28 27 28 28 29 30 30 30 29 29
16 16 16 16 16 15 16 16 17 18 18 19 19 20 21 21 22 22 22 24 25 25 27 27 28 28 28 28 29 30 30 30 31 31 32 32 32 32
18 18 18 18 18 18 19 19 20 20 21 21 22 23 24 25 25 25 25 25 26 27 28 29 30 30 30 30 30 31 31 32 32 33 34 34 34 34
20 20 20 21 21 21 21 22 22 23 23 23 24 25 26 27 27 27 27 27 27 29 30 31 31 31 32 32 32 32 32 33 33 34 35 35 35 35
22 23 23 23 24 24 24 24 25 25 25 26 26 27 28 29 30 30 30 29 29 30 31 32 33 34 34 34 34 34 34 35 35 35 36 36 36 36
25 26 26 26 27 27 27 27 28 28 28 29 30 31 31 32 33 33 33 33 33 33 33 34 34 35 36 37 37 37 36 36 36 37 37 37 37 37
28 29 29 29 29 29 30 30 31 31 32 33 34 34 34 34 34 35 35 35 36 36 37 37 37 37 37 38 39 39 39 39 39 38 38 38 38 38
30 31 31 31 31 32 32 33 33 34 35 36 36 35 35 35 36 37 37 37 37 38 39 40 40 40 40 40 40 40 41 41 41 41 40 40 40 40
33 33 33 33 33 34 34 35 36 37 38 38 37 36 36 36 37 38 38 39 39 39 40 41 42 42 42 42 42 42 42 42 42 42 42 42 42 42
34 34 35 35 36 37 37 38 38 39 39 39 39 38 38 39 39 39 39 40 40 40 40 42 42 42 43 43 43 44 43 43 44 44 44 44 43 43
35 36 37 38 39 39 40 41 41 40 41 41 41 40 40 41 40 41 41 41 42 42 42 43 43 43 43 43 43 44 44 44 44 45 45 45 45 45
38 38 40 41 41 42 42 43 43 43 43 43 42 42 43 43 42 42 42 43 43 43 43 44 44 44 45 44 44 44 44 44 45 45 46 46 46 45
40 41 42 43 43 43 45 45 45 45 45 44 44 44 44 44 43 43 43 44 44 44 43 44 44 44 45 46 45 45 45 46 46 47 47 47 48 47
43 44 44 45 45 46 47 47 48 47 47 46 46 45 45 44 43 43 43 43 44 44 45 44 44 45 46 46 46 46 46 47 47 48 48 48 49 49
46 46 46 47 48 49 49 49 50 49 48 47 46 46 45 44 44 45 44 44 43 44 45 46 46 46 46 47 47 47 47 47 48 48 49 48 49 50
48 48 48 49 50 51 51 51 50 48 48 48 47 47 46 45 45 45 46 46 45 45 46 46 47 47 47 48 49 48 48 49 49 50 50 50 50 51
49 49 50 51 52 52 52 52 51 50 49 48 47 47 46 46 46 46 46 47 46 46 47 48 48 48 48 49 49 49 50 50 50 51 51 51 52 53
50 51 52 52 53 52 52 52 52 51 50 50 48 48 48 48 47 47 47 47 47 47 47 48 49 49 49 49 49 50 50 50 51 51 50 50 51 53
52 53 53 54 54 53 54 54 53 52 52 51 50 49 49 48 48 48 47 46 47 47 47 48 48 49 50 50 49 49 49 49 50 50 50 49 50 51
54 54 55 55 55 55 55 54 53 53 51 50 49 49 48 47 47 47 46 45 46 45 45 45 46 47 48 48 49 48 48 48 49 49 49 49 49 50
56 56 56 56 56 55 55 54 53 52 50 49 48 48 48 47 46 45 44 44 44 43 42 43 44 45 46 46 45 45 46 47 47 48 48 48 48 49
57 57 56 56 55 55 55 54 52 51 49 48 47 47 47 45 44 43 42 41 41 41 41 42 42 42 42 43 43 43 44 45 45 47 48 47 47 47
Wind_Direction
339 335 329 325 318 309 303 299 296 294 288 283 278 274 268 264 262 261 259 257 252 251 249 246 245 244 244 243 243 243 243 242 241 239 239 239 239 238
335 333 327 322 316 309 302 297 292 290 286 282 279 277 273 269 266 264 263 260 256 253 251 249 248 248 249 247 245 244 244 245 243 242 242 242 243 243
331 329 326 322 316 311 305 299 293 289 286 282 279 277 275 273 271 269 268 262 258 255 254 252 251 251 251 250 249 247 247 247 246 245 245 245 244 245
327 326 323 320 316 311 307 304 298 292 287 284 281 278 277 276 274 274 272 266 260 257 255 254 253 252 252 251 251 251 250 249 248 248 247 246 246 246
322 321 319 317 314 310 307 303 299 295 290 286 283 281 278 277 276 275 273 268 264 259 256 255 254 253 252 251 252 252 252 250 249 248 247 248 247 247
317 317 316 314 311 308 305 303 300 296 292 289 286 283 280 278 276 274 271 267 264 262 259 258 256 255 253 253 252 252 253 251 250 249 247 248 248 248
313 313 312 311 309 307 305 303 301 298 294 291 288 285 282 278 275 272 270 266 265 262 260 259 258 256 254 253 252 252 252 252 251 250 249 248 249 248
310 310 310 309 307 305 304 302 300 298 295 293 290 286 282 279 275 272 270 267 265 263 261 260 259 257 256 255 254 253 252 252 251 251 250 249 249 249
310 310 309 307 306 305 303 301 300 298 296 294 291 287 283 279 276 274 272 269 265 263 261 260 259 258 256 255 255 254 253 252 252 251 250 249 249 249
309 308 307 306 304 304 303 302 300 298 297 294 291 287 284 281 278 275 273 270 267 265 262 261 260 258 256 255 254 253 252 252 252 251 251 249 249 249
307 306 305 305 304 303 303 302 301 299 297 294 291 288 285 282 280 276 274 272 269 266 264 262 260 259 256 255 254 253 251 251 251 250 250 249 250 249
305 304 304 304 304 303 303 302 300 298 297 295 292 288 285 282 279 277 275 273 271 268 266 264 261 259 257 255 253 252 251 250 250 250 249 249 249 249
304 304 304 304 303 302 302 301 300 299 297 294 291 288 285 282 279 277 276 274 272 269 266 264 261 259 257 254 253 252 252 251 251 250 250 249 249 248
304 304 304 303 303 302 302 301 299 299 297 294 290 287 285 281 278 277 275 274 272 269 266 263 260 259 257 255 253 252 252 252 252 251 249 249 248 247
303 304 303 303 302 302 302 300 299 298 296 294 291 287 284 280 277 277 276 273 272 269 266 263 261 259 258 256 254 253 252 252 252 252 251 249 248 247
304 304 303 303 302 302 302 300 300 298 296 293 291 288 284 280 277 277 276 273 271 270 268 264 261 259 257 256 255 254 253 253 252 252 251 251 249 247
304 304 304 303 303 303 302 301 300 298 296 294 291 288 284 280 277 276 275 272 270 270 268 265 262 260 258 256 255 255 254 253 253 253 252 251 249 246
304 305 305 304 304 303 302 301 300 298 296 295 292 289 285 281 278 276 276 274 272 271 268 265 262 259 258 257 256 256 255 254 253 253 252 251 248 246
304 305 305 304 304 303 302 301 300 298 296 294 291 289 286 283 280 278 277 275 273 272 269 265 262 260 258 257 257 256 255 254 253 252 251 250 248 245
304 304 305 304 304 303 302 302 300 299 297 294 290 288 286 284 281 278 276 275 273 271 269 265 261 260 259 258 257 254 253 252 251 251 250 249 247 245
304 304 304 304 304 303 302 302 301 299 297 295 291 288 286 284 282 279 277 276 274 271 268 265 261 260 260 259 256 253 251 249 249 248 247 247 245 242
304 304 304 303 303 303 302 302 301 300 299 295 291 289 286 284 281 278 276 276 274 270 267 264 261 261 261 258 254 251 248 248 248 246 245 246 244 241
303 303 303 303 303 303 302 302 301 300 298 296 292 289 287 284 281 277 275 274 273 269 266 264 262 260 258 256 253 250 248 246 246 245 243 243 242 239